Regional Weather Roundup
Issued by NWS Cleveland, OH

Home | Current Version | Previous Version | Graphics & Text | Print | Product List | Glossary On
Versions: 1 2 3 4 5 6 7 8 9 10 11 12 13 14 15 16 17 18 19 20 21 22 23 24 25 26 27 28 29 30 31 32 33 34 35 36 37 38 39 40 41 42 43 44 45 46 47 48 49 50
000
ASUS41 KCLE 181902
RWRCLE
OHIO REGIONAL WEATHER ROUNDUP
NATIONAL WEATHER SERVICE CLEVELAND, OH
200 PM EST THU JAN 18 2018

NOTE: "FAIR" INDICATES FEW OR NO CLOUDS BELOW 12,000 FEET WITH NO
SIGNIFICANT WEATHER AND/OR OBSTRUCTIONS TO VISIBILITY.

OHZ001>008-015>018-024>027-034-035-043-044-182000-
   NORTHWEST OHIO

CITY           SKY/WX    TMP DP  RH WIND       PRES   REMARKS
DEFIANCE       FAIR      24  13  62 SW13G18   30.12R WCI  12
FINDLAY        FAIR      25  13  60 SW16      30.12F WCI  12
TOLEDO EXPRESS FAIR      25  15  66 SW13G18   30.10S WCI  14
TOLEDO EXEC    FAIR      25  14  63 SW20      30.12S WCI  11
LIMA           FAIR     N/A N/A N/A SW21G26   30.11F
$$

OHZ009>014-019>023-028>033-038-089-182000-
   NORTHEAST OHIO

CITY           SKY/WX    TMP DP  RH WIND       PRES   REMARKS
CLE-HOPKINS    FAIR      27  12  53 SW17G23   30.12F WCI  14
CLE-LAKEFRONT  FAIR      26  11  52 SW18      30.10F WCI  13
CUY CO. ARPT   NOT AVBL
LORAIN-ELYRIA  FAIR      23   9  55 SW20      30.11F WCI   8
ASHTABULA      FAIR      23  10  57 SW12G21   30.08F WCI  12
AKRON-CANTON   FAIR      24  10  55 SW15G24   30.10F WCI  11
WOOSTER        FAIR      23  11  60 SW10      30.11F WCI  12
MANSFIELD      FAIR      25  12  58 SW17      30.09F WCI  12
YOUNGSTOWN     FAIR      22  10  60 SW16G26   30.09F WCI   8
$$

OHZ042-051>053-060>062-070>072-077>081-182000-
  SOUTHWEST OHIO

CITY           SKY/WX    TMP DP  RH WIND       PRES   REMARKS
CINC-COVINGTON FAIR      28  15  58 SW8       30.25F WCI  20
CINC-LUNKEN    FAIR      27  15  61 S15       30.29F WCI  15
HAMILTON       FAIR      32  14  47 SW9G22    30.25F WCI  24
DAYTON         FAIR      26  14  60 SW15      30.18F WCI  14
WRIGHT-PAT AFB FAIR      27   9  45 SW18      30.18F WCI  14
DAYTON GENERAL FAIR      28  12  51 SW13G26   30.20F WCI  17
WILMINGTON     FAIR      24  13  62 SW20      30.19F WCI  10
$$

OHZ036-037-039>041-045>050-054>059-063>069-073>076-082>088-182000-
  CENTRAL AND SOUTHEAST OHIO

CITY           SKY/WX    TMP DP  RH WIND       PRES   REMARKS
COLUMBUS       FAIR      24  11  57 S15       30.21F WCI  11
OSU AIRPORT    FAIR      22  12  65 S15       30.19F WCI   9
BOLTON FIELD   SUNNY     21  10  63 SW20G25   30.21F WCI   6
RICKENBACK AFB FAIR      24  12  59 SW13      30.21  WCI  12
NEWARK         FAIR      24  10  55 SW12      30.20F WCI  13
MARION         FAIR      21  11  65 SW20      30.14F WCI   6
LANCASTER      FAIR      25  10  53 SW10G21   30.21F WCI  15
ZANESVILLE     FAIR      26   9  48 SW14      30.20F WCI  14
NEW PHILLY     NOT AVBL
$$




USA.gov is the U.S. government's official web portal to all federal, state and local government web resources and services.